Temperature
18 17 18 17 18 18 18 18 18 18 18 18 18 18 18 18 18 18 18 18 18 18 18 18 18 18 18 18 18 18 18 18 18 18 18 18 18 17 18 18 17 17 17
18 17 18 18 18 18 18 18 18 18 18 18 18 18 18 18 18 18 18 18 18 18 18 18 18 18 18 18 18 18 18 18 18 18 18 18 18 18 17 17 17 17 17
18 17 17 18 18 18 18 18 18 18 18 18 18 18 18 18 18 18 18 18 18 18 18 18 18 18 18 18 18 18 18 18 18 18 17 17 17 18 17 17 17 17 17
18 18 17 18 18 18 18 18 18 18 18 18 18 18 18 18 18 18 18 18 18 18 18 18 18 18 18 18 18 18 18 18 18 17 17 17 17 17 17 17 17 17 17
18 18 17 18 18 18 18 18 18 18 18 18 18 18 18 18 18 18 18 18 18 18 18 18 18 18 18 18 18 18 18 18 17 17 17 17 17 17 17 17 17 17 17
18 18 17 18 18 18 18 18 18 18 18 18 18 18 18 18 18 18 18 18 18 18 18 18 18 18 18 18 18 18 17 17 17 17 17 17 17 17 17 17 17 17 17
18 18 18 18 18 18 18 18 18 18 18 18 18 18 18 18 18 18 18 18 18 18 18 18 18 18 18 18 18 18 17 17 17 17 17 17 17 17 17 17 17 17 17
18 18 18 18 18 18 18 18 18 18 18 18 18 18 18 18 18 18 18 18 18 18 18 18 18 18 18 18 18 18 17 17 17 17 17 17 17 17 17 17 17 17 17
18 18 18 18 18 18 18 18 18 18 18 18 18 18 18 18 18 18 18 18 18 18 18 18 18 18 18 18 18 18 18 17 17 17 17 17 17 17 17 17 17 17 17
18 18 18 18 17 18 18 18 18 18 18 18 18 18 18 18 18 18 18 18 18 18 18 18 18 18 18 18 18 18 18 17 17 17 17 17 18 17 17 17 17 17 17
18 18 18 18 18 18 18 18 18 18 18 18 18 18 18 17 17 17 17 18 18 18 18 18 18 18 18 18 18 18 17 17 18 17 17 17 18 17 17 17 17 17 17
18 18 18 18 18 18 18 17 17 17 17 17 17 17 17 17 17 17 18 18 18 18 18 18 18 18 18 17 18 18 17 17 18 17 17 17 17 17 17 17 17 17 17
18 18 18 18 18 18 18 18 18 17 17 17 18 17 18 17 18 18 18 18 18 18 17 17 17 17 17 17 17 18 18 18 18 17 17 17 17 17 17 17 17 17 17
19 18 18 18 18 18 18 18 18 18 18 18 18 17 18 18 18 18 17 17 18 18 18 17 17 17 17 17 17 17 17 17 17 17 17 17 17 17 17 17 17 17 17
19 18 18 18 18 18 18 18 18 18 18 18 18 18 18 18 18 18 17 17 17 18 18 17 17 17 17 17 17 17 17 17 17 17 17 17 17 17 17 17 17 17 17
19 19 18 18 18 18 18 18 18 18 18 18 17 18 18 18 17 17 17 17 17 17 17 17 17 17 17 17 17 17 17 17 17 17 17 17 17 17 17 17 17 17 16
19 19 18 18 18 18 18 18 18 18 18 18 18 18 18 18 18 17 17 17 17 17 17 17 17 17 17 17 17 17 17 17 17 17 17 17 17 17 17 17 17 16 16
19 19 18 19 18 18 18 18 18 18 18 18 18 18 18 18 18 17 17 17 17 17 17 17 17 17 17 17 17 17 17 17 17 17 17 17 16 16 16 17 17 16 16
19 19 19 18 18 18 18 18 18 18 18 18 17 18 17 17 17 17 17 17 17 17 17 17 17 17 17 17 17 17 17 17 17 17 17 17 16 16 16 16 16 16 16
19 19 19 18 18 18 18 18 18 18 18 18 18 18 17 17 17 17 17 17 17 17 17 17 17 17 17 17 17 17 17 17 17 17 17 17 17 16 16 16 16 16 16
20 19 19 19 19 18 18 18 18 18 18 18 18 18 17 17 17 17 17 17 17 17 17 17 17 17 17 17 17 17 17 17 17 17 17 17 16 16 16 16 16 16 16
20 20 19 19 19 19 19 18 18 18 18 18 18 17 17 17 17 17 17 17 17 17 17 17 17 17 17 17 17 17 18 18 17 17 16 16 16 16 16 16 16 16 15
21 20 20 20 19 19 19 18 18 18 18 18 18 17 17 17 17 17 17 17 17 17 17 17 17 17 17 17 17 17 17 18 17 17 16 16 16 16 16 15 15 15 15
21 21 20 20 20 20 19 19 18 18 18 18 18 18 17 17 17 17 17 17 17 17 17 17 17 17 17 17 17 17 17 17 17 17 16 16 16 15 15 15 15 15 15
22 21 21 20 20 20 19 19 19 19 18 18 18 18 17 17 17 17 17 17 17 17 17 17 17 17 17 17 17 17 17 16 16 16 16 16 16 15 15 15 15 15 14
22 21 21 21 20 20 20 19 19 19 18 18 18 18 18 18 17 17 17 17 17 17 17 17 17 17 17 17 16 16 16 16 17 16 16 16 15 15 15 15 14 14 14
Wind_Speed
6 8 10 10 10 12 13 14 14 15 15 15 16 17 17 16 16 17 17 17 18 18 18 17 17 18 17 17 17 17 16 17 17 17 16 15 14 14 13 13 12 13 14
5 8 10 10 11 12 13 14 14 14 15 15 16 16 17 17 18 18 17 17 17 17 17 17 17 17 17 16 16 16 16 16 16 15 15 15 14 12 11 8 7 13 13
6 8 10 11 11 12 13 13 14 14 15 15 16 16 16 16 16 17 17 17 17 17 17 17 17 16 16 15 15 15 15 14 14 13 11 12 13 12 11 10 12 13 12
7 8 11 11 11 12 13 13 13 14 14 15 16 16 16 15 16 16 16 16 16 15 16 16 15 15 14 14 14 13 13 13 11 10 8 10 12 12 11 11 11 11 11
7 9 12 11 11 13 13 13 13 14 14 14 15 15 15 15 15 15 15 15 15 14 14 14 14 14 13 13 12 12 11 10 8 6 9 9 10 12 10 10 10 10 10
8 10 13 12 13 13 14 14 14 14 14 14 14 14 14 14 14 14 13 13 13 13 13 13 12 12 12 11 11 11 9 7 7 8 8 8 10 11 10 9 9 9 9
9 11 14 13 13 13 13 13 13 13 13 13 13 13 13 13 12 13 12 12 12 12 11 11 11 11 11 10 10 9 7 4 4 7 7 7 9 10 8 8 8 8 8
9 10 12 13 12 12 13 13 12 12 12 13 13 12 12 11 11 11 11 11 11 10 9 9 9 9 9 9 8 8 6 3 5 6 7 8 10 8 7 7 7 7 7
8 9 9 10 11 12 12 12 11 11 11 11 11 11 11 10 10 10 10 9 9 9 8 8 8 8 8 7 7 7 5 3 2 4 5 7 10 7 6 6 6 6 6
7 7 8 9 8 9 11 11 11 11 11 10 10 10 9 9 10 9 9 9 8 7 7 7 6 7 7 7 7 6 5 5 3 4 4 8 9 6 5 6 6 6 6
6 6 6 7 7 7 9 10 10 10 9 8 9 8 5 7 8 8 10 9 7 6 6 5 5 5 7 8 7 6 6 3 4 3 4 9 7 5 5 5 6 6 6
6 6 5 6 5 6 7 7 6 7 7 6 6 5 6 6 5 6 9 7 6 5 5 5 4 6 7 6 8 8 4 3 3 3 5 8 5 4 4 5 5 5 5
6 5 6 5 4 4 5 5 4 5 5 5 6 4 4 4 4 4 4 6 5 5 4 5 5 3 2 2 1 2 1 1 2 2 6 8 5 4 4 4 5 5 5
5 5 5 4 4 3 3 4 3 4 4 4 4 3 3 3 3 4 2 3 2 3 3 2 2 2 1 2 1 1 1 0 1 1 5 7 4 4 4 4 5 5 5
5 5 5 3 4 3 3 2 3 3 3 4 3 3 2 2 2 3 2 1 1 2 2 2 2 2 1 1 1 1 1 0 0 0 3 6 4 3 4 4 4 5 4
5 5 4 4 4 3 3 2 2 2 2 2 2 2 1 1 2 1 1 1 1 1 1 1 2 1 1 1 1 2 1 1 1 1 0 4 6 4 3 3 3 3 4
5 5 4 4 4 4 3 2 2 2 2 2 2 2 1 1 1 0 1 0 1 1 1 1 1 1 1 1 1 1 1 1 1 1 1 1 2 5 4 3 3 3 4
5 5 4 4 4 4 2 1 1 1 2 1 1 2 1 2 1 1 1 1 1 0 0 1 1 1 1 1 1 0 1 1 1 1 1 0 1 0 4 4 3 3 3
6 5 5 4 4 4 3 2 1 1 0 0 1 2 1 1 1 0 1 1 1 0 0 1 1 0 1 0 1 1 0 0 0 0 1 1 0 1 1 4 4 3 2
7 6 6 5 4 4 3 3 1 1 1 1 1 1 0 0 1 1 1 0 1 0 1 1 1 1 1 1 1 1 0 0 0 0 1 0 0 1 1 1 1 3 3
8 7 7 6 5 4 3 3 2 2 1 1 1 1 0 1 1 1 1 0 1 0 1 1 1 1 1 1 1 1 1 1 1 0 0 1 1 1 1 2 2 2 2
9 8 8 7 6 6 4 3 2 1 1 1 1 1 1 0 1 0 1 1 0 0 1 1 2 2 2 1 2 2 1 2 2 1 1 0 1 1 1 1 1 1 2
10 10 8 7 7 6 5 4 4 3 2 2 1 1 0 0 0 1 1 2 1 2 1 1 2 3 2 2 2 2 2 1 0 1 1 1 1 1 1 1 1 1 1
11 10 9 8 7 7 6 5 5 3 2 1 1 1 1 0 1 1 1 1 2 2 1 2 1 2 3 2 1 2 2 2 2 1 1 1 1 1 1 2 2 1 2
11 10 10 9 8 8 7 6 6 4 3 2 2 1 1 1 1 1 1 1 2 2 1 2 1 2 2 3 2 2 2 2 3 3 2 1 1 1 1 1 2 2 2
11 10 10 10 9 9 8 7 6 5 4 3 3 2 2 1 1 1 1 1 2 1 1 2 2 2 2 2 3 2 2 2 2 3 3 2 1 1 1 1 2 2 2
Wind_Direction
31 37 48 52 68 74 76 79 81 84 86 88 92 95 97 99 101 106 104 105 105 104 104 104 102 101 101 103 104 107 108 110 111 112 111 112 115 117 122 130 137 120 118
45 56 63 61 75 78 80 82 82 84 85 87 89 93 94 98 102 102 103 103 103 104 104 103 102 101 101 102 104 106 108 110 112 114 119 117 114 116 120 122 105 113 123
67 75 77 70 76 81 84 86 85 85 86 88 90 93 96 100 102 102 103 103 103 104 104 104 103 102 101 102 105 108 109 112 117 127 145 129 119 118 116 112 109 120 125
82 84 76 77 81 82 84 85 87 88 89 90 91 92 97 99 100 101 103 103 103 104 105 105 105 104 104 107 108 110 113 117 127 155 140 117 119 117 119 119 121 126 128
87 86 84 82 84 85 86 86 89 90 90 91 92 93 95 98 100 102 103 104 103 103 103 104 104 106 108 109 110 112 115 124 150 163 111 114 114 120 126 128 129 132 133
91 88 89 85 86 87 88 87 87 88 90 90 91 92 94 96 100 104 104 104 105 105 105 105 106 107 110 113 114 115 120 143 174 122 119 118 116 126 133 136 138 138 140
90 90 91 86 86 88 89 88 86 87 87 88 90 91 93 95 98 100 101 103 105 107 108 109 109 110 112 115 119 122 132 168 140 116 117 112 111 128 139 142 142 145 147
92 93 95 96 89 88 88 88 88 86 84 85 86 88 90 94 97 98 99 103 105 108 110 112 112 116 120 123 125 130 140 197 135 120 120 113 115 134 143 148 151 155 158
93 93 97 102 102 102 94 88 87 87 88 88 87 86 88 93 97 99 102 104 108 109 112 116 120 124 129 132 133 136 149 225 135 117 117 113 120 138 150 154 159 162 166
96 95 99 98 101 108 106 99 93 89 90 91 92 92 96 106 109 112 112 105 106 110 113 117 123 129 132 137 143 150 176 211 148 124 116 116 129 144 157 165 171 175 177
102 100 101 105 107 105 102 108 111 106 101 109 105 107 118 103 103 113 91 99 105 111 117 124 133 142 150 153 159 176 199 183 125 106 96 106 133 154 167 177 180 182 187
113 110 104 102 106 106 105 111 112 106 101 95 87 89 90 87 88 92 108 110 111 118 132 137 155 174 193 165 165 189 192 154 131 122 108 119 146 171 185 188 186 191 198
127 123 115 107 99 103 112 114 101 101 103 102 92 89 91 96 98 99 113 126 129 146 134 143 177 157 145 116 138 169 149 138 132 125 115 132 158 186 195 196 199 202 201
133 126 118 117 115 102 101 109 120 111 107 98 96 79 84 79 71 82 92 96 122 114 104 115 108 103 99 123 141 142 151 246 74 92 107 131 162 199 203 205 208 206 204
138 138 132 132 125 122 114 129 112 101 99 99 91 77 56 84 75 84 80 72 70 87 120 118 110 103 112 124 121 111 92 89 346 210 124 135 168 198 207 211 212 207 204
149 140 139 144 136 140 143 130 120 121 111 94 97 77 40 52 70 80 112 100 78 68 63 79 109 121 110 91 95 82 52 70 63 11 185 147 156 173 192 214 215 215 216
153 146 153 160 154 154 151 156 145 147 120 107 92 80 39 43 61 36 44 93 68 68 117 134 117 131 146 139 112 81 68 39 57 36 344 317 164 169 180 200 212 223 233
170 165 171 173 160 164 161 178 182 81 83 93 106 95 60 25 24 315 7 37 42 25 84 129 160 142 100 105 97 64 86 93 59 19 358 317 308 256 163 171 203 227 243
183 182 185 185 178 177 170 176 173 133 65 52 88 81 78 48 37 231 27 28 295 29 3 311 98 326 116 134 167 162 177 176 72 17 353 351 339 302 299 154 177 193 227
188 189 192 192 192 192 188 186 200 180 168 172 114 82 33 6 14 336 130 5 305 352 0 22 29 333 281 275 326 54 13 328 206 21 293 333 50 330 323 344 177 180 180
190 192 196 200 191 198 200 207 196 190 184 161 135 83 31 350 15 320 336 55 301 353 325 292 265 209 240 257 247 226 180 172 130 119 345 345 35 18 24 17 359 345 155
192 195 195 197 194 199 192 200 200 200 195 152 119 80 37 46 329 252 316 286 314 299 267 272 254 269 265 259 284 280 245 184 155 119 112 41 353 350 0 25 37 358 326
195 196 196 195 194 197 194 191 183 183 204 180 171 162 198 294 304 324 316 320 320 299 297 269 259 263 271 261 269 276 289 304 342 142 121 83 20 358 354 22 37 12 340
195 192 192 190 190 190 193 199 199 204 200 184 201 155 165 244 287 298 303 310 312 311 306 277 275 265 270 280 267 266 283 302 266 248 186 127 78 10 359 355 17 35 11
192 189 187 186 188 189 192 194 203 210 204 193 187 175 237 196 257 287 283 291 292 301 325 315 300 283 278 286 289 282 268 248 249 262 269 276 355 17 33 10 15 28 31
189 187 185 183 188 189 192 197 204 210 214 213 216 219 219 206 212 238 243 260 271 296 297 293 287 277 301 302 297 290 282 277 269 264 273 266 294 360 28 18 6 30 38
Height
1524 1521 1518 1517 1516 1515 1515 1515 1515 1515 1515 1515 1516 1516 1517 1518 1518 1520 1522 1524 1525 1527 1529 1530 1532 1533 1534 1536 1537 1538 1540 1541 1543 1544 1546 1547 1548 1550 1551 1552 1553 1554 1554
1525 1523 1520 1519 1518 1518 1518 1518 1518 1519 1519 1519 1519 1520 1521 1521 1522 1524 1526 1527 1529 1530 1532 1533 1535 1536 1537 1538 1540 1541 1542 1544 1545 1546 1548 1549 1550 1551 1552 1553 1555 1556 1556
1526 1525 1523 1521 1521 1521 1521 1521 1521 1522 1522 1522 1523 1523 1524 1525 1526 1528 1529 1531 1532 1533 1534 1536 1537 1538 1540 1541 1542 1543 1545 1546 1547 1549 1551 1553 1553 1553 1554 1555 1556 1556 1557
1529 1527 1526 1524 1524 1524 1524 1524 1525 1525 1525 1526 1526 1527 1528 1529 1530 1531 1532 1534 1535 1536 1538 1539 1540 1541 1542 1543 1544 1546 1547 1548 1549 1551 1554 1556 1555 1555 1556 1556 1557 1558 1558
1531 1530 1527 1526 1527 1527 1527 1527 1527 1528 1529 1529 1530 1531 1531 1532 1533 1534 1536 1537 1538 1539 1540 1541 1542 1544 1544 1546 1547 1548 1549 1550 1551 1554 1556 1557 1556 1556 1557 1557 1558 1559 1560
1533 1533 1530 1530 1530 1530 1531 1531 1531 1531 1532 1533 1533 1534 1535 1536 1537 1538 1539 1540 1541 1542 1543 1544 1545 1546 1547 1548 1549 1550 1551 1552 1554 1556 1557 1558 1558 1557 1558 1558 1559 1560 1560
1536 1536 1535 1534 1534 1534 1534 1534 1534 1535 1535 1536 1536 1537 1538 1539 1540 1540 1541 1542 1543 1544 1545 1546 1547 1548 1549 1550 1550 1551 1552 1553 1556 1557 1558 1558 1558 1558 1558 1559 1560 1560 1561
1539 1539 1538 1537 1537 1537 1538 1538 1538 1538 1538 1539 1539 1540 1541 1541 1542 1543 1544 1544 1545 1546 1547 1548 1549 1550 1551 1551 1552 1553 1553 1554 1557 1558 1559 1559 1558 1558 1559 1560 1560 1561 1561
1541 1542 1542 1542 1541 1541 1541 1541 1541 1542 1542 1542 1543 1543 1544 1544 1545 1546 1546 1547 1547 1548 1549 1550 1550 1551 1552 1552 1553 1554 1555 1555 1558 1559 1560 1559 1558 1559 1559 1560 1560 1561 1561
1544 1544 1544 1545 1545 1545 1545 1544 1544 1545 1545 1545 1546 1546 1546 1547 1547 1548 1548 1549 1549 1550 1551 1551 1552 1552 1553 1554 1554 1555 1556 1557 1559 1560 1560 1559 1559 1559 1559 1560 1560 1561 1561
1545 1546 1547 1547 1548 1548 1549 1548 1548 1548 1548 1548 1549 1549 1549 1551 1551 1551 1550 1551 1551 1552 1552 1552 1553 1553 1554 1555 1555 1556 1557 1559 1560 1560 1560 1559 1559 1559 1559 1559 1560 1560 1560
1547 1548 1549 1549 1550 1550 1551 1550 1551 1551 1551 1551 1551 1551 1552 1552 1552 1553 1552 1552 1552 1553 1553 1553 1553 1554 1555 1557 1557 1557 1559 1559 1560 1560 1560 1559 1559 1559 1559 1559 1559 1559 1559
1549 1550 1550 1550 1551 1552 1552 1553 1553 1553 1553 1553 1553 1553 1553 1554 1554 1554 1554 1554 1554 1554 1555 1555 1555 1556 1557 1557 1558 1559 1559 1560 1560 1560 1559 1559 1559 1559 1558 1558 1559 1559 1559
1550 1551 1551 1552 1552 1552 1554 1554 1555 1555 1555 1555 1554 1555 1555 1555 1555 1555 1555 1555 1555 1555 1555 1556 1556 1556 1556 1557 1558 1558 1559 1559 1560 1559 1559 1558 1558 1558 1558 1558 1558 1558 1557
1551 1552 1552 1552 1553 1553 1554 1555 1556 1556 1557 1556 1556 1556 1556 1556 1556 1556 1555 1555 1556 1556 1556 1556 1556 1556 1556 1557 1557 1558 1558 1558 1558 1559 1558 1557 1557 1557 1557 1557 1557 1557 1557
1552 1553 1553 1553 1553 1554 1555 1555 1556 1557 1557 1558 1557 1557 1557 1557 1557 1556 1556 1556 1556 1556 1556 1556 1556 1556 1556 1557 1557 1557 1557 1558 1557 1557 1558 1557 1556 1556 1556 1556 1556 1556 1556
1553 1553 1554 1554 1554 1555 1556 1556 1557 1558 1558 1558 1558 1558 1557 1558 1557 1557 1557 1557 1556 1556 1556 1556 1556 1556 1556 1556 1556 1556 1556 1556 1556 1556 1556 1556 1556 1555 1555 1555 1555 1554 1554
1553 1553 1554 1555 1555 1556 1556 1556 1558 1558 1558 1558 1558 1558 1558 1557 1557 1557 1557 1557 1556 1556 1556 1556 1556 1556 1556 1556 1555 1556 1556 1555 1555 1555 1555 1554 1555 1555 1554 1553 1553 1553 1552
1552 1553 1554 1555 1556 1556 1557 1557 1557 1558 1558 1558 1559 1558 1558 1557 1557 1557 1557 1556 1556 1556 1556 1556 1556 1555 1555 1555 1555 1555 1555 1554 1554 1554 1554 1553 1553 1553 1553 1552 1551 1551 1551
1552 1553 1554 1554 1555 1556 1557 1557 1558 1558 1558 1558 1558 1558 1558 1558 1557 1557 1557 1556 1556 1556 1556 1555 1555 1554 1554 1554 1555 1554 1554 1553 1553 1553 1553 1553 1552 1552 1551 1551 1550 1550 1549
1551 1552 1553 1554 1554 1555 1557 1557 1558 1558 1559 1559 1559 1558 1558 1557 1557 1557 1557 1556 1556 1556 1555 1555 1555 1554 1554 1553 1554 1554 1553 1553 1552 1552 1551 1551 1551 1551 1550 1549 1549 1549 1548
1550 1551 1552 1553 1554 1554 1555 1556 1557 1557 1558 1558 1558 1558 1557 1557 1557 1557 1556 1556 1555 1555 1554 1554 1553 1554 1554 1553 1553 1553 1553 1553 1552 1551 1551 1550 1550 1549 1549 1548 1547 1546 1546
1548 1549 1551 1551 1552 1553 1554 1556 1556 1556 1557 1558 1558 1557 1557 1557 1556 1556 1555 1555 1554 1554 1554 1553 1553 1553 1553 1552 1552 1552 1552 1551 1551 1551 1550 1549 1548 1548 1548 1547 1546 1545 1544
1546 1547 1549 1550 1551 1552 1553 1555 1556 1556 1557 1557 1557 1557 1556 1556 1556 1555 1554 1554 1553 1554 1553 1553 1552 1552 1551 1551 1551 1550 1551 1550 1550 1550 1550 1549 1548 1547 1546 1546 1545 1544 1543
1543 1545 1547 1548 1549 1551 1552 1553 1554 1555 1556 1556 1556 1556 1555 1555 1554 1554 1554 1553 1552 1552 1552 1551 1551 1550 1550 1550 1550 1549 1549 1548 1548 1548 1548 1548 1547 1546 1545 1544 1544 1543 1542
1541 1543 1545 1546 1547 1549 1550 1551 1552 1553 1554 1555 1555 1555 1555 1555 1554 1553 1553 1552 1552 1552 1551 1550 1550 1549 1548 1548 1548 1547 1547 1547 1547 1546 1546 1545 1545 1544 1543 1543 1543 1541 1541